Regional Weather Roundup
Issued by NWS

Home | Current Version | Previous Version | Graphics & Text | Print | Product List | Glossary On
Versions: 1 2 3 4 5 6 7 8 9 10 11 12 13 14 15 16 17 18 19 20 21 22 23 24 25 26 27 28 29 30 31 32 33 34 35 36 37 38 39 40 41 42 43 44 45 46 47 48 49 50
000
ASUS43 KIND 250409
RWRIN

WEATHER ROUNDUP FOR INDIANA
NATIONAL WEATHER SERVICE INDIANAPOLIS IN
1200 AM EDT MON JUL 25 2016

NOTE: "FAIR" INDICATES FEW OR NO CLOUDS BELOW 12,000 FEET WITH NO
SIGNIFICANT WEATHER AND/OR OBSTRUCTIONS TO VISIBILITY.

* - STATION DOES NOT REPORT WEATHER SUCH AS PRECIPITATION OR FOG.

+ - STATION NOT QUALITY CONTROLLED BY THE NATIONAL WEATHER SERVICE.
    USE DATA WITH CAUTION...ESPECIALLY DEWPOINT AND RELATIVE
    HUMIDITY OBSERVATIONS.

INZ001>003-010>013-019-020-250500-
NORTHWEST INDIANA

CITY           SKY/WX    TMP DP  RH WIND       PRES   REMARKS
GARY /AIRPORT/ CLOUDY    73  73 100 SW7       29.92R
KNOX *+        CLOUDY    70  61  73 S8        29.96R
LA PORTE +     LGT RAIN  72  72 100 W5        29.94R
MICHIGAN CITY+ CLOUDY    72  66  83 S5        29.92R
MONTICELLO +   LGT RAIN  69  65  87 N3G12     30.02R
RENSSELAER +   RAIN      70  68  94 S10       29.97F
VALPARAISO     LGT RAIN  72  68  87 S13       29.92S

$$

LMZ046-743>745-250500-
SOUTHERN LAKE MICHIGAN

STATION/POSITION TIME  TEMP    WIND        PRES    WAVE
                       AIR SEA DIR/SP/G            HT
                 (UTC) (F)     (DEG/KT/KT) (MB)    (FT)
BURNS HARBOR     0321   76     190/  8/ 14 1012.9R
MICHIGAN CITY    0300   76     220/  4/  4   N/A
5NW MICH CITY    0400   76 74  210/ 10/ 12   N/A     3

$$

INZ004-005-014>016-021>024-250500-
NORTH CENTRAL INDIANA

CITY           SKY/WX    TMP DP  RH WIND       PRES   REMARKS
GOSHEN         CLOUDY    78  64  61 SW8       29.93R
LOGANSPORT +   HVY RAIN  72  63  73 NW18G24   30.02R
PERU/GRISSOM   CLOUDY    80  66  62 NW23      29.99R
ROCHESTER +    CLOUDY    72  70  94 W10G17    29.98R
SOUTH BEND     LGT RAIN  73  67  81 SW6       29.92S
WARSAW +       CLOUDY    77  68  73 W9        29.95R

$$

INZ006>009-017-018-025>027-250500-
NORTHEAST INDIANA

CITY           SKY/WX    TMP DP  RH WIND       PRES   REMARKS
ANGOLA *+      CLEAR     81  75  83 S7        29.92S
AUBURN +       CLOUDY    82  73  74 CALM      29.93S
FORT WAYNE     MOCLDY    82  74  76 SW8       29.94S
HUNTINGTON +   MOCLDY   N/A N/A N/A SW7       29.94R

$$

INZ028-029-035-036-043>045-051>053-250500-
WEST CENTRAL INDIANA

CITY           SKY/WX    TMP DP  RH WIND       PRES   REMARKS
CRAWFORDSVL +  PTCLDY    75  75 100 CALM      29.99R FOG
GREENCASTLE +  CLEAR     79  79 100 CALM      29.99R
LAFAYETTE      CLOUDY    72  69  90 N10G22    30.00R
TERRE HAUTE    CLEAR     81  76  84 CALM      29.96R

$$

INZ030>032-037>040-046>048-054>057-064-065-250500-
CENTRAL INDIANA

CITY           SKY/WX    TMP DP  RH WIND       PRES   REMARKS
FRANKFORT +    PTCLDY   N/A N/A N/A W5        30.00R
INDIANAPOLIS   PTCLDY    80  76  87 SW7       29.98R
-EAGLE CREEK   CLEAR     83  76  79 MISG      29.97R
KOKOMO *+      CLOUDY    82  73  74 W15       29.97R
MARION +       CLEAR     78  74  87 SW7       29.97R
MT COMFORT *+  CLEAR     77  73  88 SW6       29.98R
SHELBYVILLE    CLEAR     80  75  84 SW5       29.96F
ZIONSVILLE +   CLEAR     78  75  91 SW5       29.99R

$$

INZ033-034-041-042-049-050-058-059-250500-
EAST CENTRAL INDIANA

CITY           SKY/WX    TMP DP  RH WIND       PRES   REMARKS
MUNCIE         CLEAR     83  76  79 W7        29.97R

$$

INZ060-061-067>069-081>083-085>088-250500-
SOUTHWEST INDIANA

CITY           SKY/WX    TMP DP  RH WIND       PRES   REMARKS
EVANSVILLE     PTCLDY    82  75  79 S7        29.95F
HUNTINGBURG *+ CLEAR     81  73  78 S8        29.96F
WASHINGTON +   CLEAR     80  80 100 MISG      29.95R

$$

INZ062-063-066-070>080-084-089>092-250500-
SOUTH CENTRAL AND SOUTHEAST INDIANA

CITY           SKY/WX    TMP DP  RH WIND       PRES   REMARKS
BLOOMINGTON    CLEAR     77  73  87 CALM      29.98S
MADISON *+     CLEAR     79  73  83 CALM      30.00S

$$





USA.gov is the U.S. government's official web portal to all federal, state and local government web resources and services.